STARLINK-4763, 53805

Orbit data source: Space-Track

STARLINK-4763, 53805 is a payload satellite owned by SpaceX/Seattle (US) in LEO that was launched on Sun, 11 Sep 2022 UTC via an FALCON 9 launch vehicle from the Air Force Eastern Test Range (AFETR). Payloads include a variety of satellites, spacecraft, and rockets equipped with specific instruments for various scientific and technological missions. These include communications satellites like Starlink; space stations such as the ISS; scientific satellites like the Hubble; Earth observation satellites from companies like Planet Labs, Umbra, and HawkEye 360; GPS; miniature CubeSats for education and research; and military/defense satellites.

Loading next visibility...
STARLINK-4763 details
Identifier
53805, 2022-111AJ
Orbit
LEO
Last TLE update1 day ago
Origin
Flag of USSpaceX/Seattle (US)
ManufacturerSpaceX/Seattle
MissionOperational Commercial Communications
Bus & MotorSTARLINK, Unknown motor
Mass305 kg wet, ~290 kg dry
Launch date (UTC)
2022-09-11 (2 years ago)
Launch vehicle
FALCON 9
Launch site
Air Force Eastern Test Range (AFETR)
Object type
Payload
Rocket body
Debris
Shape & HBRBox + 1 Pan, 8.86 m
Radar Cross Section13.562 m², Large (>1 m²)

Expand to show TLE details & history

TLE from 1 day ago
0 STARLINK-4763
1 53805U 22111AJ  24347.85809060  .00003279  00000-0  22396-3 0  9990
2 53805  53.2166 117.5995 0001734  83.2152 276.9037 15.08853957125002
Epoch: 2024-12-12T20:35Z
Definitive object data (Epoch: 2024-12-12T20:35:39.027Z)
Latitude-0.00008°
Longitude86.65444°
Altitude540.454 km
Speed7.593 km/s
True Right ascension07h 50m 23s
True Declination0° 00' 00"
Sunlit
Object was in full shadow at TLE epoch
Visualization TLE readout
Latitude35.56329°
Longitude-130.03141°
Altitude541.562 km
Speed7.597 km/s
Apparent Right ascension13h 22m 34s
Apparent Declination-1° 16' 04"
Sunlit
Object is in daylight
Visualization observer readout
Local Sidereal Time19:33:27
Azimuth270.772° WNW
Elevation-2.899°
Doppler factor1
Orbital elements
Apogee altitude541.145 km
Perigee altitude538.746 km
Semi-major axis6,918.083 km
Eccentricity0.0001734
Inclination53.2166°
RAAN117.5995°
Arg. of periapsis83.2152°
True anomaly276.88397°
Mean anomaly276.9037°
Eccentric anomaly276.89384°
Mean motion3.77194 °/min
BSTAR0.00022396
Orbital period95.44 mins
Loading maneuver chart data...
Loading historical data...
Loading historical data...
Loading historical data...
Loading historical data...
Loading historical data...
Loading historical data...
Loading historical data...

STARLINK-4763 Visibility forecast

Observer location: undefined°, undefined

Span
Click to sort rows by Start time (UTC) header in descending order
Start Az.
Max El. time (UTC)
Max El. Az.
Max El.
End time (UTC)
End Az.
7 mins2024-12-14 10:54:46.753Z210.845° SW2024-12-14 10:57:46.753Z152.389° SSE39.045°2024-12-14 11:01:46.753Z58.285° ENE
5 mins2024-12-14 12:35:46.753Z293.165° NW2024-12-14 12:37:46.753Z338.517° N23.995°2024-12-14 12:40:46.753Z29.944° NE
6 mins2024-12-14 17:36:46.753Z328.703° NNW2024-12-14 17:38:46.753Z31.743° NE38.775°2024-12-14 17:42:46.753Z113.928° SE
4 mins2024-12-14 19:16:46.753Z254.602° W2024-12-14 19:17:46.753Z234.239° WSW19.492°2024-12-14 19:20:46.753Z184.269° SSW
|